This demonstration page uses our WeatherBlox Daily Observations layout. Learn more.

Left ArrowRight Arrow

Hourly Observations for December 24, 2021

Temp ( °F °C ) Dew Point ( °F °C ) Humidity (%) Winds ( mph kmh ) Pressure ( in mb ) Visibility ( mi km ) Precip ( " mm )
12:56 am 00:56 Clear 36 2.2 21 -6.1 55 55 SSW 9 15 29.47 998 10 16 0.00 0.00
1:56 am 01:56 Clear 34 1.1 21 -6.1 59 59 S 5 7 29.42 996 10 16 0.00 0.00
2:56 am 02:56 Clear 34 1.1 21 -6.1 59 59 SSW 5 7 29.41 996 10 16 0.00 0.00
3:56 am 03:56 Clear 34 1.1 21 -6.1 59 59 WSW 5 7 29.37 995 10 16 0.00 0.00
4:56 am 04:56 Clear 36 2.2 20 -6.7 52 52 SW 5 7 29.37 995 10 16 0.00 0.00
5:56 am 05:56 Clear 32 0 21 -6.1 64 64 W 5 7 29.37 995 10 16 0.00 0.00
6:56 am 06:56 Clear 33 0.6 20 -6.7 58 58 NW 7 11 29.38 995 10 16 0.00 0.00
7:56 am 07:56 Clear 31 -0.6 22 -5.6 69 69 Calm 29.39 995 10 16 0.00 0.00
8:56 am 08:56 Sunny 35 1.7 20 -6.7 54 54 WNW 8 13 29.42 996 10 16 0.00 0.00
9:56 am 09:56 Sunny 42 5.6 23 -5 47 47 W 7 11 29.42 996 10 16 0.00 0.00
10:56 am 10:56 Sunny 52 11.1 28 -2.2 40 40 NW 15 24 29.43 997 10 16 0.00 0.00
11:56 am 11:56 Sunny 59 15 33 0.6 38 38 NNW 15 24 29.40 996 10 16 0.00 0.00
12:56 pm 12:56 Sunny 61 16.1 33 0.6 35 35 N 12 19 29.40 996 10 16 0.00 0.00
1:56 pm 13:56 Sunny 62 16.7 34 1.1 35 35 N 10 17 29.39 995 10 16 0.00 0.00
2:56 pm 14:56 Sunny 62 16.7 34 1.1 35 35 NNE 8 13 29.41 996 10 16 0.00 0.00
3:56 pm 15:56 Sunny 57 13.9 33 0.6 41 41 NNE 13 20 29.45 997 10 16 0.00 0.00
4:56 pm 16:56 Sunny 53 11.7 32 0 45 45 N 13 20 29.48 998 10 16 0.00 0.00
5:56 pm 17:56 Clear 48 8.9 31 -0.6 52 52 N 13 20 29.54 1000 10 16 0.00 0.00
6:56 pm 18:56 Cloudy 45 7.2 30 -1.1 56 56 N 15 24 29.55 1001 10 16 0.00 0.00
7:56 pm 19:56 Mostly Cloudy 43 6.1 28 -2.2 56 56 NNE 17 28 29.57 1001 10 16 0.00 0.00
8:56 pm 20:56 Partly Cloudy 41 5 26 -3.3 55 55 N 13 20 29.60 1002 10 16 0.00 0.00
9:56 pm 21:56 Mostly Cloudy 36 2.2 25 -3.9 64 64 NE 7 11 29.59 1002 10 16 0.00 0.00
10:56 pm 22:56 Clear 35 1.7 25 -3.9 67 67 NNW 9 15 29.62 1003 10 16 0.00 0.00
11:56 pm 23:56 Clear 32 0 25 -3.9 75 75 N 9 15 29.63 1003 10 16 0.00 0.00

Powered by AerisWeather